Weather History for Tyler, TX

Change the Weather History Date:

Sunday, November 20, 2011

  Actual Average Record
Temperature  
Mean Temperature 77 °F 54 °F  
Max Temperature 82 °F 63 °F 82 °F (2011)
Min Temperature 71 °F 44 °F 22 °F (1903)
Degree Days  
Heating Degree Days 0 11  
Month to date heating degree days 112 164  
Since 1 July heating degree days 178 241  
Cooling Degree Days 12 0  
Month to date cooling degree days 55 14  
Year to date cooling degree days 3676 2407  
Growing Degree Days 26 (Base 50)    
Moisture  
Dew Point 68 °F    
Average Humidity 74    
Maximum Humidity 93    
Minimum Humidity 55    
Precipitation  
Precipitation 0.00 in 0.13 in 4.18 in (1907)
Month to date precipitation 1.70 2.86  
Year to date precipitation 17.58 40.31  
Snow  
Snow 0.00 in - - ()
Month to date snowfall 0.0  
Since 1 July snowfall 0.0  
Since 1 September snowfall 0.0  
Snow Depth 0.00 in    
Sea Level Pressure  
Sea Level Pressure 30.05 in    
Wind  
Wind Speed 11 mph (South)    
Max Wind Speed 18 mph    
Max Gust Speed 25 mph    
Visibility 10 miles    
Events      
T = Trace of Precipitation, MM = Missing Value Source: NWS Daily Summary

Daily Weather History Graph

Daily Weather History Graph

Search for Another Location

Airport:

Trip Planner

Search our weather history database for the weather conditions in past years. The results will help you decide how hot, cold, wet, or windy it might be!

Date:

Astronomy

Nov. 20, 2011 Rise Set
Actual Time 6:55 AM CST 5:18 PM CST
Civil Twilight 6:28 AM CST 5:45 PM CST
Nautical Twilight 5:59 AM CST 6:14 PM CST
Astronomical Twilight 5:29 AM CST 6:44 PM CST
Moon 1:41 AM CST (11/20) 1:54 PM CST (11/20)
Length of Visible Light 11h 16m
Length of Day
10h 23m
Waning Crescent, 27% of the Moon is Illuminated
Nov 20
Waning Crescent
Nov 25
New
Dec 2
First Quarter
Dec 10
Full
Dec 17
Last Quarter

Hourly Weather History & Observations

Time (CST) Temp. Heat Index Dew Point Humidity Pressure Visibility Wind Dir Wind Speed Gust Speed Precip Events Conditions
12:53 AM 73.0 °F - 68.0 °F 84% 29.97 in 10.0 mi South 16.1 mph 21.9 mph N/A   Overcast
1:16 AM 73.4 °F - 68.0 °F 83% 29.98 in 10.0 mi South 15.0 mph - N/A   Overcast
1:53 AM 72.0 °F - 68.0 °F 87% 29.96 in 10.0 mi South 13.8 mph 21.9 mph N/A   Overcast
2:53 AM 72.0 °F - 68.0 °F 87% 29.98 in 10.0 mi South 11.5 mph - N/A   Overcast
3:53 AM 71.6 °F - 69.8 °F 94% 30.00 in 10.0 mi South 12.7 mph - N/A   Overcast
4:53 AM 72.0 °F - 69.1 °F 91% 30.00 in 10.0 mi South 10.4 mph - N/A   Overcast
5:25 AM 71.6 °F - 69.8 °F 94% 30.02 in 10.0 mi South 12.7 mph - N/A   Overcast
5:53 AM 72.0 °F - 69.1 °F 91% 30.02 in 10.0 mi South 8.1 mph - N/A   Overcast
6:48 AM 71.6 °F - 69.8 °F 94% 30.05 in 9.0 mi South 11.5 mph - N/A   Overcast
6:53 AM 72.0 °F - 69.1 °F 91% 30.04 in 8.0 mi South 8.1 mph - N/A   Overcast
7:03 AM 71.6 °F - 69.8 °F 94% 30.06 in 8.0 mi South 8.1 mph - N/A   Overcast
7:53 AM 73.0 °F - 69.1 °F 87% 30.06 in 8.0 mi South 10.4 mph - N/A   Overcast
8:18 AM 73.4 °F - 69.8 °F 88% 30.09 in 9.0 mi South 10.4 mph - N/A   Overcast
8:30 AM 73.4 °F - 69.8 °F 88% 30.10 in 9.0 mi South 11.5 mph - N/A   Overcast
8:53 AM 75.0 °F - 69.1 °F 82% 30.09 in 10.0 mi South 11.5 mph - N/A   Overcast
9:53 AM 75.9 °F - 68.0 °F 76% 30.10 in 10.0 mi SSW 12.7 mph - N/A   Overcast
10:53 AM 77.0 °F - 69.1 °F 76% 30.12 in 10.0 mi South 8.1 mph - N/A   Overcast
11:23 AM 78.8 °F - 68.0 °F 69% 30.12 in 10.0 mi SSW 11.5 mph - N/A   Overcast
11:39 AM 78.8 °F - 68.0 °F 69% 30.12 in 10.0 mi South 12.7 mph 19.6 mph N/A   Overcast
11:53 AM 78.8 °F - 68.0 °F 69% 30.11 in 10.0 mi SSW 11.5 mph - N/A   Mostly Cloudy
12:53 PM 79.0 °F - 66.9 °F 66% 30.07 in 10.0 mi South 10.4 mph - N/A   Mostly Cloudy
1:05 PM 80.6 °F 83.2 °F 68.0 °F 65% 30.08 in 10.0 mi South 11.5 mph - N/A   Scattered Clouds
1:53 PM 81.0 °F 83.8 °F 68.0 °F 65% 30.03 in 10.0 mi South 11.5 mph - N/A   Partly Cloudy
2:53 PM 81.0 °F 83.3 °F 66.9 °F 62% 30.02 in 10.0 mi SSE 6.9 mph - N/A   Partly Cloudy
3:53 PM 82.0 °F 83.8 °F 64.9 °F 56% 30.02 in 10.0 mi SSE 11.5 mph - N/A   Scattered Clouds
4:53 PM 79.0 °F - 64.9 °F 62% 30.02 in 10.0 mi SE 6.9 mph - N/A   Clear
5:53 PM 75.9 °F - 64.9 °F 69% 30.04 in 10.0 mi SSE 5.8 mph - N/A   Clear
6:53 PM 75.0 °F - 64.9 °F 71% 30.06 in 10.0 mi South 6.9 mph - N/A   Clear
7:53 PM 75.2 °F - 64.4 °F 69% 30.07 in 10.0 mi SSE 11.5 mph - N/A   Clear
8:53 PM 73.9 °F - 64.9 °F 73% 30.05 in 10.0 mi South 15.0 mph 20.7 mph N/A   Clear
9:53 PM 73.0 °F - 66.0 °F 79% 30.06 in 10.0 mi South 13.8 mph 21.9 mph N/A   Clear
10:53 PM 73.0 °F - 66.9 °F 81% 30.07 in 10.0 mi South 15.0 mph 21.9 mph N/A   Clear
11:17 PM 73.4 °F - 66.2 °F 78% 30.09 in 10.0 mi South 12.7 mph 20.7 mph N/A   Mostly Cloudy
11:53 PM 72.0 °F - 66.9 °F 84% 30.08 in 10.0 mi SSW 10.4 mph - N/A   Overcast